Torna al catalogo

ARIANE 1 DEB

AttivoSSO
NORAD 17423·DEBRIS·🇫🇷 France

Lanciato Feb 22, 1986 da Guiana Space Centre

Loading…

Prossimi Passaggi (prossime 24 ore)

TLE

AggiornatoSource: Space-Track

Epoca: Sep 13, 2026, 00:08 UTC

1 17423U 86019FJ  26256.00606497 -.00000054  00000-0 -74537-5 0  9996
2 17423  98.7040 266.6317 0174725 144.0417 247.2304 14.02925452 27358

Traccia ARIANE 1 DEB in tempo reale con AllMySat

Download on the App Store